Home   Weather   Singapore   Past weeks

Flag for Singapore Past Weather in Singapore, Singapore — Yesterday and Last 2 Weeks

Now
81 °F

Broken clouds.


Feels Like: 87 °F
Forecast: 76 / 86 °F
Wind: 1 mph from North

Location: Singapore / Paya Lebar

Current Time: Apr 26, 2017 at 8:23:57 am

Latest Report: Apr 26, 2017 at 8:00 am


Visibility: 4 mi

Pressure: 29.83 "Hg

Humidity: 89%

Dew Point: 77 °F

Location of SingaporeLocation

Past Weather in Singapore — Graph

°F

Singapore Temperature Yesterday

Maximum temperature yesterday: 90 °F (at 11:00 am)
Minimum temperature yesterday: 79 °F (at 5:00 am)
Average temperature yesterday: 82 °F

High & Low Weather Summary for the Past Weeks

 TemperatureHumidityPressure
High95 °F (Apr 17, 4:00 pm)94% (Apr 11, 7:00 am)29.95 "Hg (Apr 11, 7:00 am)
Low75 °F (Apr 13, 8:00 am)26% (Apr 15, 3:00 pm)29.68 "Hg (Apr 11, 4:00 pm)
Average84 °F78%29.81 "Hg
* Reported Apr 11 7:00 am — Apr 26 7:00 am, Singapore, Weather by CustomWeather, © 2017

Note: Actual official high and low records may vary slightly from our data, if they occured in-between our weather recording intervals... More about our weather records

Advertising

Singapore Weather History for the Previous 24 Hours

Scroll right to see more
 ConditionsComfort  
Time TempWeatherWind HumidityBarometerVisibility
7:00 am
Wed, Apr 26
79 °FPartly sunny.1 mph94%29.83 "Hg2 mi
6:00 am79 °FPassing clouds.1 mph94%29.80 "Hg4 mi
5:00 am79 °FPassing clouds.2 mph94%29.80 "Hg4 mi
11:00 pm
Tue, Apr 25
81 °FPassing clouds.1 mph89%29.86 "Hg5 mi
10:00 pm81 °FPassing clouds.1 mph89%29.86 "Hg5 mi
9:00 pm81 °FPassing clouds.2 mph89%29.83 "Hg5 mi
8:00 pm81 °FPassing clouds.1 mph89%29.80 "HgN/A
7:00 pm81 °FPartly sunny.3 mph84%29.77 "Hg5 mi
6:40 pm81 °FPartly sunny.5 mph89%29.77 "Hg4 mi
6:00 pm81 °FThunderstorms. Partly sunny.1 mph89%29.74 "Hg4 mi
5:32 pm81 °FThunderstorms. Partly sunny.1 mph84%29.77 "Hg5 mi
5:00 pm81 °FLight rain. Partly sunny.2 mph89%29.77 "Hg5 mi
4:30 pm81 °FLight rain. Partly sunny.No wind84%29.74 "Hg4 mi
4:00 pm81 °FThunderstorms. Partly sunny.1 mph89%29.74 "Hg4 mi
3:00 pm82 °FLight rain. Partly sunny.3 mph84%29.80 "Hg4 mi
2:00 pm81 °FThunderstorms. Partly sunny.3 mph89%29.83 "Hg5 mi
1:15 pm81 °FThunderstorms. Partly sunny.3 mph89%29.86 "Hg4 mi
1:00 pm81 °FThunderstorms. Scattered clouds.7 mph89%29.86 "Hg2 mi
12:41 pm81 °FThunderstorms. Scattered clouds.6 mph84%29.86 "Hg6 mi
12:26 pm82 °FStrong thunderstorms. Partly sunny.16 mph84%29.86 "Hg2 mi
12:00 pm90 °FThundershowers. Scattered clouds.8 mph63%29.86 "Hg6 mi
11:00 am90 °FPartly sunny.3 mph63%29.86 "HgN/A
10:00 am86 °FPartly sunny.6 mph75%29.86 "Hg6 mi
9:00 am84 °FBroken clouds.2 mph84%29.83 "Hg5 mi
8:00 am81 °FPartly sunny.2 mph94%29.83 "Hg4 mi
Weather by CustomWeather, © 2017

See weather overviewHow to use our weather pages